• In Kazakhstan
  • List of Countries
  • For 7 days
  • Water Temperature
  • Weather Map
  • News
  • Weather Widgets
  • user-avatar
    Login

    Hourly Weather Ischgl

    Today, 19 August, Monday

    Time Temperature Precipitation Wind Pressure Humidity
    00:00 +8°C° 0.1 mm 2 mps 577 mmHg 92%
    01:00 +8°C° 0 mm 2 mps 577 mmHg 95%
    02:00 +9°C° 0.1 mm 1 mps 577 mmHg 94%
    03:00 +9°C° 0.1 mm 1 mps 577 mmHg 93%
    04:00 +9°C° 0.1 mm 1 mps 577 mmHg 93%
    05:00 +9°C° 0.2 mm 1 mps 577 mmHg 91%
    06:00 +10°C° 0.2 mm 1 mps 578 mmHg 90%
    07:00 +9°C° 0 mm 2 mps 578 mmHg 92%
    08:00 +10°C° 0.8 mm 2 mps 579 mmHg 89%
    09:00 +11°C° 0.8 mm 1 mps 579 mmHg 86%
    10:00 +12°C° 0.8 mm 1 mps 579 mmHg 83%
    11:00 +13°C° 0.7 mm 1 mps 579 mmHg 80%
    12:00 +14°C° 0.7 mm 1 mps 580 mmHg 77%
    13:00 +14°C° 0.7 mm 2 mps 580 mmHg 74%
    14:00 +13°C° 1.6 mm 1 mps 580 mmHg 80%
    15:00 +13°C° 1.6 mm 1 mps 579 mmHg 85%
    16:00 +12°C° 1.6 mm 1 mps 579 mmHg 90%
    17:00 +11°C° 1 mm 1 mps 579 mmHg 92%
    18:00 +11°C° 1 mm 1 mps 579 mmHg 94%
    19:00 +10°C° 1 mm 1 mps 578 mmHg 95%
    20:00 +10°C° 0.4 mm 1 mps 579 mmHg 95%
    21:00 +10°C° 0.4 mm 1 mps 579 mmHg 95%
    22:00 +9°C° 0.4 mm 0 mps 579 mmHg 95%
    23:00 +8°C° 0.3 mm 0 mps 579 mmHg 95%

    Tomorrow, 20 August, Tuesday

    Time Temperature Precipitation Wind Pressure Humidity
    00:00 +9°C° 0.3 mm 1 mps 578 mmHg 94%
    01:00 +9°C° 0.3 mm 1 mps 578 mmHg 94%
    02:00 +9°C° 0.2 mm 1 mps 578 mmHg 94%
    03:00 +9°C° 0.2 mm 1 mps 578 mmHg 94%
    04:00 +9°C° 0.2 mm 1 mps 578 mmHg 94%
    05:00 +9°C° 0.3 mm 1 mps 578 mmHg 93%
    06:00 +9°C° 0.3 mm 1 mps 578 mmHg 93%
    07:00 +10°C° 0.3 mm 1 mps 579 mmHg 93%
    08:00 +11°C° 0.4 mm 1 mps 579 mmHg 90%
    09:00 +11°C° 0.4 mm 1 mps 579 mmHg 87%
    10:00 +12°C° 0.4 mm 1 mps 580 mmHg 83%
    11:00 +13°C° 0.5 mm 2 mps 580 mmHg 79%
    12:00 +14°C° 0.5 mm 2 mps 581 mmHg 74%
    13:00 +15°C° 0.5 mm 2 mps 581 mmHg 69%
    14:00 +15°C° 0.5 mm 2 mps 581 mmHg 70%
    15:00 +14°C° 0.5 mm 2 mps 581 mmHg 71%
    16:00 +14°C° 0.5 mm 2 mps 581 mmHg 72%
    17:00 +12°C° 0.5 mm 2 mps 580 mmHg 79%
    18:00 +9°C° 0.5 mm 2 mps 580 mmHg 86%
    19:00 +8°C° 0.5 mm 2 mps 579 mmHg 93%
    20:00 +7°C° 0.4 mm 2 mps 579 mmHg 94%
    21:00 +7°C° 0.4 mm 2 mps 579 mmHg 94%
    22:00 +6°C° 0.4 mm 2 mps 579 mmHg 95%
    23:00 +6°C° 0.8 mm 2 mps 579 mmHg 96%

    Day after tomorrow, 21 August, Wednesday

    Time Temperature Precipitation Wind Pressure Humidity
    00:00 +5°C° 0.8 mm 2 mps 579 mmHg 96%
    01:00 +5°C° 0.8 mm 2 mps 579 mmHg 97%
    02:00 +4°C° 1.3 mm 2 mps 578 mmHg 97%
    03:00 +4°C° 1.3 mm 2 mps 578 mmHg 97%
    04:00 +4°C° 1.3 mm 2 mps 578 mmHg 97%
    05:00 +4°C° 1.1 mm 2 mps 578 mmHg 96%
    06:00 +5°C° 1.1 mm 1 mps 579 mmHg 95%
    07:00 +5°C° 1.1 mm 1 mps 579 mmHg 94%
    08:00 +6°C° 0 mm 1 mps 579 mmHg 89%
    09:00 +8°C° 0 mm 1 mps 580 mmHg 84%
    10:00 +9°C° 0 mm 1 mps 581 mmHg 80%
    11:00 +11°C° 0.1 mm 1 mps 581 mmHg 75%
    12:00 +12°C° 0.1 mm 1 mps 582 mmHg 71%
    13:00 +13°C° 0.1 mm 2 mps 582 mmHg 66%
    14:00 +13°C° 0.2 mm 2 mps 582 mmHg 68%
    15:00 +13°C° 0.2 mm 2 mps 582 mmHg 69%
    16:00 +13°C° 0.2 mm 2 mps 581 mmHg 71%
    17:00 +12°C° 0.2 mm 2 mps 581 mmHg 77%
    18:00 +11°C° 0.2 mm 1 mps 580 mmHg 84%
    19:00 +9°C° 0.2 mm 1 mps 580 mmHg 90%
    20:00 +9°C° 0.1 mm 1 mps 580 mmHg 91%
    21:00 +8°C° 0.1 mm 1 mps 580 mmHg 92%
    22:00 +7°C° 0.1 mm 1 mps 579 mmHg 93%
    23:00 +7°C° 0 mm 1 mps 579 mmHg 92%

    22 August, Thursday

    Time Temperature Precipitation Wind Pressure Humidity
    00:00 +7°C° 0 mm 1 mps 579 mmHg 90%
    01:00 +7°C° 0 mm 1 mps 579 mmHg 89%
    02:00 +7°C° 0 mm 1 mps 579 mmHg 88%
    03:00 +7°C° 0 mm 1 mps 578 mmHg 88%
    04:00 +6°C° 0 mm 1 mps 578 mmHg 87%
    05:00 +8°C° 0 mm 1 mps 579 mmHg 84%
    06:00 +9°C° 0 mm 1 mps 580 mmHg 81%
    07:00 +9°C° 0 mm 0 mps 581 mmHg 77%
    08:00 +11°C° 0 mm 0 mps 581 mmHg 70%
    09:00 +12°C° 0 mm 0 mps 582 mmHg 62%
    10:00 +15°C° 0 mm 1 mps 583 mmHg 54%
    11:00 +15°C° 0.1 mm 1 mps 583 mmHg 53%
    12:00 +16°C° 0.1 mm 1 mps 583 mmHg 51%
    13:00 +16°C° 0.1 mm 1 mps 583 mmHg 50%
    14:00 +16°C° 0.7 mm 2 mps 583 mmHg 56%
    15:00 +15°C° 0.7 mm 2 mps 582 mmHg 62%
    16:00 +15°C° 0.7 mm 2 mps 582 mmHg 68%
    17:00 +13°C° 0.8 mm 2 mps 581 mmHg 75%
    18:00 +12°C° 0.8 mm 1 mps 581 mmHg 82%
    19:00 +11°C° 0.8 mm 1 mps 580 mmHg 89%
    20:00 +10°C° 0.3 mm 1 mps 580 mmHg 90%
    21:00 +8°C° 0.3 mm 0 mps 580 mmHg 91%
    22:00 +7°C° 0.3 mm 0 mps 580 mmHg 92%
    23:00 +7°C° 0 mm 0 mps 579 mmHg 92%

    23 August, Friday

    Time Temperature Precipitation Wind Pressure Humidity
    00:00 +6°C° 0 mm 0 mps 579 mmHg 91%
    01:00 +6°C° 0 mm 0 mps 579 mmHg 91%
    02:00 +6°C° 0 mm 0 mps 579 mmHg 89%
    03:00 +6°C° 0 mm 1 mps 578 mmHg 88%
    04:00 +6°C° 0 mm 1 mps 578 mmHg 87%
    05:00 +8°C° 0 mm 1 mps 579 mmHg 85%
    06:00 +9°C° 0 mm 1 mps 580 mmHg 82%
    07:00 +10°C° 0 mm 1 mps 580 mmHg 79%
    08:00 +12°C° 0 mm 1 mps 581 mmHg 72%
    09:00 +14°C° 0 mm 1 mps 582 mmHg 64%
    10:00 +15°C° 0 mm 1 mps 583 mmHg 56%
    11:00 +16°C° 0.5 mm 1 mps 583 mmHg 56%
    12:00 +16°C° 0.5 mm 1 mps 583 mmHg 56%
    13:00 +16°C° 0.5 mm 1 mps 583 mmHg 56%
    14:00 +16°C° 1.5 mm 1 mps 582 mmHg 62%
    15:00 +15°C° 1.5 mm 1 mps 582 mmHg 67%
    16:00 +14°C° 1.5 mm 2 mps 581 mmHg 72%
    17:00 +13°C° 1.1 mm 1 mps 581 mmHg 78%
    18:00 +12°C° 1.1 mm 1 mps 580 mmHg 83%
    19:00 +11°C° 1.1 mm 1 mps 580 mmHg 89%
    20:00 +10°C° 0.8 mm 1 mps 579 mmHg 89%
    21:00 +10°C° 0.8 mm 1 mps 579 mmHg 89%
    22:00 +10°C° 0.8 mm 1 mps 579 mmHg 89%
    23:00 +9°C° 0.1 mm 1 mps 579 mmHg 88%

    24 August, Saturday

    Time Temperature Precipitation Wind Pressure Humidity
    00:00 +9°C° 0.1 mm 1 mps 579 mmHg 88%
    01:00 +8°C° 0.1 mm 1 mps 578 mmHg 87%
    02:00 +8°C° 0 mm 1 mps 578 mmHg 87%
    03:00 +8°C° 0 mm 1 mps 578 mmHg 87%
    04:00 +8°C° 0 mm 1 mps 578 mmHg 87%
    05:00 +9°C° 0 mm 1 mps 578 mmHg 85%
    06:00 +10°C° 0 mm 1 mps 578 mmHg 83%
    07:00 +11°C° 0 mm 1 mps 579 mmHg 81%
    08:00 +12°C° 0.1 mm 1 mps 580 mmHg 74%
    09:00 +14°C° 0.1 mm 1 mps 580 mmHg 67%
    10:00 +15°C° 0.1 mm 1 mps 581 mmHg 60%
    11:00 +15°C° 0.9 mm 1 mps 581 mmHg 62%
    12:00 +15°C° 0.9 mm 1 mps 581 mmHg 63%
    13:00 +16°C° 0.9 mm 1 mps 580 mmHg 65%
    14:00 +15°C° 1.9 mm 1 mps 580 mmHg 68%
    15:00 +14°C° 1.9 mm 1 mps 580 mmHg 71%
    16:00 +14°C° 1.9 mm 2 mps 579 mmHg 74%
    17:00 +13°C° 1.2 mm 1 mps 579 mmHg 80%
    18:00 +12°C° 1.2 mm 1 mps 578 mmHg 85%
    19:00 +9°C° 1.2 mm 0 mps 578 mmHg 91%
    20:00 +9°C° 0.5 mm 0 mps 578 mmHg 91%
    21:00 +10°C° 0.5 mm 1 mps 578 mmHg 91%
    22:00 +9°C° 0.5 mm 1 mps 578 mmHg 91%
    23:00 +9°C° 0.1 mm 1 mps 577 mmHg 91%
    Show more